{"data":{"norad_id":57938,"epoch":"2026-09-20T06:47:44.057184Z","epoch_age_seconds":153915,"freshness":"FRESH","line1":"1 57938U 23148D   26263.28314881  .00001479  00000+0  54915-4 0  9992","line2":"2 57938  53.1621 186.4265 0001597  82.9704 277.1481 15.34399593168406","mean_motion":15.34399593,"eccentricity":0.0001597,"inclination_deg":53.1621,"raan_deg":186.4265,"arg_perigee_deg":82.9704,"mean_anomaly_deg":277.1481,"bstar":5.4915e-5,"rev_number":16840,"period_min":93.847782974484,"perigee_km":461.6119675176,"apogee_km":463.79693227669,"semimajor_km":6840.8414498971,"source":"CELESTRAK","updated_at":"2026-09-21T09:00:33.744636Z"}}